This is the latest recevied weather packets stored in our database for station/object KD7AWQ. If no packets are shown the sender has not sent any weather packets the latest 10 day(s).
| Time | Temp. | Humidity | Pressure | Rain* | Wind** | Luminosity | Snow |
|---|---|---|---|---|---|---|---|
| 1788052327 | 30° C | 34% | 1185.3 hPa | 0 mm | - | 3 W/m² | - |
| 1788052022 | 30° C | 35% | 1185.3 hPa | 0 mm | - | 3 W/m² | - |
| 1788051716 | 30° C | 35% | 1185.3 hPa | 0 mm | - | 4 W/m² | - |
| 1788051416 | 30° C | 35% | 1185.4 hPa | 0 mm | - | 5 W/m² | - |
| 1788051115 | 29.44° C | 37% | 1185.7 hPa | 0 mm | - | 7 W/m² | - |
| 1788050809 | 30° C | 36% | 1185.8 hPa | 0 mm | - | 8 W/m² | - |
| 1788050504 | 29.44° C | 36% | 1186 hPa | 0 mm | - | 10 W/m² | - |
| 1788050199 | 30.56° C | 35% | 1185.7 hPa | 0 mm | - | 13 W/m² | - |
| 1788049893 | 31.11° C | 31% | 1185.7 hPa | 0 mm | - | 19 W/m² | - |
| 1788049586 | 31.67° C | 29% | 1185.7 hPa | 0 mm | - | 26 W/m² | - |
| 1788049282 | 31.67° C | 28% | 1185.6 hPa | 0 mm | - | 28 W/m² | - |
| 1788048982 | 32.22° C | 27% | 1185.5 hPa | 0 mm | - | 35 W/m² | - |
| 1788048678 | 32.22° C | 27% | 1185.5 hPa | 0 mm | - | 46 W/m² | - |
| 1788048375 | 31.67° C | 28% | 1185.2 hPa | 0 mm | - | 66 W/m² | - |
| 1788048075 | 31.67° C | 28% | 1185.2 hPa | 0 mm | - | 95 W/m² | - |
| 1788047771 | 32.22° C | 28% | 1184.8 hPa | 0 mm | - | 121 W/m² | - |
| 1788047466 | 33.33° C | 27% | 1185 hPa | 0 mm | - | 127 W/m² | - |
| 1788047162 | 33.33° C | 25% | 1185 hPa | 0 mm | - | 114 W/m² | - |
| 1788046856 | 33.89° C | 24% | 1185 hPa | 0 mm | - | 104 W/m² | - |
| 1788046554 | 33.33° C | 25% | 1185.2 hPa | 0 mm | - | 95 W/m² | - |
| 1788046250 | 33.33° C | 25% | 1185.2 hPa | 0 mm | - | 108 W/m² | - |
| 1788045948 | 33.89° C | 25% | 1185 hPa | 0 mm | - | 104 W/m² | - |
| 1788045644 | 33.89° C | 25% | 1184.9 hPa | 0 mm | - | 86 W/m² | - |
| 1788045338 | 34.44° C | 22% | 1185 hPa | 0 mm | - | 74 W/m² | - |
| 1788045034 | 34.44° C | 22% | 1185 hPa | 0 mm | - | 76 W/m² | - |
* Rain latest hour (hover to see other rain measurements)
** Current wind speed in m/s (hover to see current wind gust speed)